When you browse on this site, cookies collect data to enhance your experience and personalize the content and advertising you see.
Visit our Privacy Policy to learn more. By continuing to use the site, you agree to this use of cookies and data.
  • In United Kingdom
  • List of Countries
  • For 7 days
  • Water Temperature
  • Satellite Maps
  • Weather Map
  • Weather Widgets
  • user-avatar
    Login

    Hourly Weather Erd

    Today, 20 April, Saturday

    Time Temperature Precipitation Wind Pressure Humidity
    00:00 +13°C° 0 mm 2 mps 762 mmHg 48%
    01:00 +12°C° 0 mm 2 mps 762 mmHg 50%
    02:00 +12°C° 0 mm 2 mps 762 mmHg 52%
    03:00 +11°C° 0 mm 1 mps 762 mmHg 53%
    04:00 +11°C° 0 mm 1 mps 762 mmHg 55%
    05:00 +11°C° 0 mm 1 mps 762 mmHg 54%
    06:00 +12°C° 0 mm 1 mps 762 mmHg 54%
    07:00 +13°C° 0 mm 2 mps 762 mmHg 53%
    08:00 +15°C° 0 mm 2 mps 762 mmHg 47%
    09:00 +16°C° 0 mm 2 mps 762 mmHg 41%
    10:00 +18°C° 0 mm 2 mps 762 mmHg 35%
    11:00 +19°C° 0 mm 2 mps 762 mmHg 33%
    12:00 +19°C° 0 mm 2 mps 761 mmHg 31%
    13:00 +20°C° 0 mm 2 mps 761 mmHg 29%
    14:00 +20°C° 0 mm 2 mps 761 mmHg 29%
    15:00 +21°C° 0 mm 1 mps 760 mmHg 30%
    16:00 +21°C° 0 mm 1 mps 760 mmHg 30%
    17:00 +19°C° 0 mm 2 mps 759 mmHg 35%
    18:00 +17°C° 0 mm 2 mps 759 mmHg 39%
    19:00 +16°C° 0 mm 2 mps 759 mmHg 43%
    20:00 +15°C° 0 mm 2 mps 759 mmHg 46%
    21:00 +14°C° 0 mm 2 mps 759 mmHg 48%
    22:00 +14°C° 0 mm 2 mps 759 mmHg 50%
    23:00 +13°C° 0 mm 2 mps 759 mmHg 52%

    Tomorrow, 21 April, Sunday

    Time Temperature Precipitation Wind Pressure Humidity
    00:00 +12°C° 0 mm 3 mps 759 mmHg 54%
    01:00 +11°C° 0 mm 3 mps 758 mmHg 56%
    02:00 +11°C° 0 mm 3 mps 758 mmHg 57%
    03:00 +10°C° 0 mm 3 mps 758 mmHg 59%
    04:00 +10°C° 0 mm 3 mps 757 mmHg 60%
    05:00 +11°C° 0 mm 3 mps 757 mmHg 59%
    06:00 +12°C° 0 mm 3 mps 757 mmHg 58%
    07:00 +13°C° 0 mm 3 mps 757 mmHg 57%
    08:00 +14°C° 0 mm 3 mps 757 mmHg 50%
    09:00 +17°C° 0 mm 3 mps 757 mmHg 44%
    10:00 +19°C° 0 mm 3 mps 757 mmHg 37%
    11:00 +20°C° 0 mm 3 mps 756 mmHg 35%
    12:00 +20°C° 0 mm 4 mps 756 mmHg 33%
    13:00 +21°C° 0 mm 4 mps 755 mmHg 31%
    14:00 +21°C° 0 mm 4 mps 755 mmHg 32%
    15:00 +21°C° 0 mm 4 mps 754 mmHg 33%
    16:00 +21°C° 0 mm 4 mps 754 mmHg 34%
    17:00 +19°C° 0 mm 3 mps 754 mmHg 39%
    18:00 +18°C° 0 mm 3 mps 754 mmHg 43%
    19:00 +16°C° 0 mm 2 mps 753 mmHg 48%
    20:00 +15°C° 0 mm 2 mps 754 mmHg 50%
    21:00 +15°C° 0 mm 2 mps 754 mmHg 53%
    22:00 +14°C° 0 mm 2 mps 754 mmHg 56%
    23:00 +13°C° 0 mm 2 mps 754 mmHg 59%

    Day after tomorrow, 22 April, Monday

    Time Temperature Precipitation Wind Pressure Humidity
    00:00 +13°C° 0 mm 2 mps 753 mmHg 62%
    01:00 +12°C° 0 mm 2 mps 753 mmHg 65%
    02:00 +10°C° 0 mm 2 mps 753 mmHg 70%
    03:00 +10°C° 0 mm 2 mps 753 mmHg 75%
    04:00 +9°C° 0 mm 2 mps 752 mmHg 79%
    05:00 +10°C° 0 mm 2 mps 752 mmHg 78%
    06:00 +11°C° 0 mm 3 mps 752 mmHg 77%
    07:00 +11°C° 0 mm 3 mps 752 mmHg 76%
    08:00 +12°C° 0.2 mm 3 mps 752 mmHg 75%
    09:00 +13°C° 0.2 mm 3 mps 752 mmHg 74%
    10:00 +13°C° 0.2 mm 3 mps 752 mmHg 73%
    11:00 +14°C° 0.4 mm 4 mps 751 mmHg 72%
    12:00 +14°C° 0.4 mm 4 mps 751 mmHg 72%
    13:00 +14°C° 0.4 mm 4 mps 750 mmHg 71%
    14:00 +15°C° 0 mm 4 mps 750 mmHg 67%
    15:00 +15°C° 0 mm 4 mps 750 mmHg 64%
    16:00 +17°C° 0 mm 4 mps 749 mmHg 60%
    17:00 +15°C° 0 mm 5 mps 749 mmHg 67%
    18:00 +13°C° 0 mm 5 mps 749 mmHg 73%
    19:00 +11°C° 0 mm 6 mps 749 mmHg 80%
    20:00 +12°C° 0 mm 5 mps 749 mmHg 80%
    21:00 +12°C° 0 mm 5 mps 749 mmHg 81%
    22:00 +10°C° 0 mm 5 mps 749 mmHg 81%
    23:00 +10°C° 0 mm 5 mps 749 mmHg 78%

    23 April, Tuesday

    Time Temperature Precipitation Wind Pressure Humidity
    00:00 +10°C° 0 mm 6 mps 749 mmHg 74%
    01:00 +10°C° 0 mm 6 mps 749 mmHg 71%
    02:00 +10°C° 0.4 mm 6 mps 749 mmHg 74%
    03:00 +9°C° 0.4 mm 6 mps 749 mmHg 77%
    04:00 +9°C° 0.4 mm 6 mps 748 mmHg 80%
    05:00 +9°C° 1 mm 7 mps 748 mmHg 82%
    06:00 +7°C° 1 mm 8 mps 748 mmHg 85%
    07:00 +7°C° 1 mm 8 mps 748 mmHg 87%
    08:00 +7°C° 2.2 mm 8 mps 749 mmHg 87%
    09:00 +7°C° 2.2 mm 8 mps 749 mmHg 86%
    10:00 +7°C° 2.2 mm 8 mps 749 mmHg 85%
    11:00 +9°C° 0.6 mm 8 mps 749 mmHg 85%
    12:00 +9°C° 0.6 mm 7 mps 748 mmHg 85%
    13:00 +10°C° 0.6 mm 7 mps 748 mmHg 84%
    14:00 +11°C° 0.3 mm 7 mps 748 mmHg 82%
    15:00 +12°C° 0.3 mm 8 mps 748 mmHg 79%
    16:00 +13°C° 0.3 mm 8 mps 748 mmHg 77%
    17:00 +13°C° 0.7 mm 8 mps 748 mmHg 77%
    18:00 +12°C° 0.7 mm 8 mps 748 mmHg 77%
    19:00 +12°C° 0.7 mm 7 mps 748 mmHg 77%
    20:00 +12°C° 0.1 mm 7 mps 749 mmHg 77%
    21:00 +11°C° 0.1 mm 6 mps 749 mmHg 77%
    22:00 +11°C° 0.1 mm 6 mps 749 mmHg 77%
    23:00 +12°C° 0 mm 5 mps 750 mmHg 78%

    24 April, Wednesday

    Time Temperature Precipitation Wind Pressure Humidity
    00:00 +10°C° 0 mm 5 mps 750 mmHg 79%
    01:00 +11°C° 0 mm 4 mps 750 mmHg 80%
    02:00 +11°C° 0 mm 4 mps 750 mmHg 82%
    03:00 +11°C° 0 mm 4 mps 750 mmHg 84%
    04:00 +11°C° 0 mm 4 mps 751 mmHg 85%
    05:00 +11°C° 0 mm 4 mps 751 mmHg 84%
    06:00 +12°C° 0 mm 4 mps 752 mmHg 82%
    07:00 +12°C° 0 mm 4 mps 752 mmHg 80%
    08:00 +14°C° 0 mm 4 mps 752 mmHg 76%
    09:00 +16°C° 0 mm 5 mps 753 mmHg 72%
    10:00 +17°C° 0 mm 5 mps 753 mmHg 68%
    11:00 +19°C° 0.1 mm 5 mps 753 mmHg 65%
    12:00 +21°C° 0.1 mm 5 mps 753 mmHg 61%
    13:00 +22°C° 0.1 mm 5 mps 753 mmHg 58%
    14:00 +22°C° 0.8 mm 5 mps 752 mmHg 59%
    15:00 +22°C° 0.8 mm 5 mps 752 mmHg 60%
    16:00 +22°C° 0.8 mm 5 mps 752 mmHg 62%
    17:00 +21°C° 0.2 mm 5 mps 752 mmHg 66%
    18:00 +19°C° 0.2 mm 4 mps 753 mmHg 71%
    19:00 +18°C° 0.2 mm 4 mps 753 mmHg 76%
    20:00 +17°C° 0.1 mm 4 mps 753 mmHg 77%
    21:00 +17°C° 0.1 mm 4 mps 753 mmHg 78%
    22:00 +15°C° 0.1 mm 4 mps 754 mmHg 79%
    23:00 +14°C° 0.2 mm 4 mps 754 mmHg 82%

    25 April, Thursday

    Time Temperature Precipitation Wind Pressure Humidity
    00:00 +13°C° 0.2 mm 3 mps 754 mmHg 85%
    01:00 +12°C° 0.2 mm 3 mps 754 mmHg 87%
    02:00 +12°C° 0 mm 3 mps 754 mmHg 88%
    03:00 +12°C° 0 mm 3 mps 754 mmHg 90%
    04:00 +12°C° 0 mm 3 mps 754 mmHg 91%
    05:00 +12°C° 0 mm 4 mps 754 mmHg 88%
    06:00 +13°C° 0 mm 4 mps 754 mmHg 85%
    07:00 +14°C° 0 mm 5 mps 754 mmHg 82%
    08:00 +15°C° 0 mm 5 mps 754 mmHg 77%
    09:00 +17°C° 0 mm 6 mps 754 mmHg 73%
    10:00 +19°C° 0 mm 6 mps 754 mmHg 68%
    11:00 +21°C° 0 mm 6 mps 753 mmHg 65%
    12:00 +22°C° 0 mm 6 mps 753 mmHg 61%
    13:00 +23°C° 0 mm 6 mps 752 mmHg 57%
    14:00 +23°C° 0 mm 6 mps 752 mmHg 57%
    15:00 +23°C° 0 mm 6 mps 751 mmHg 57%
    16:00 +23°C° 0 mm 6 mps 751 mmHg 57%
    17:00 +22°C° 0 mm 6 mps 750 mmHg 60%
    18:00 +21°C° 0 mm 5 mps 750 mmHg 64%
    19:00 +19°C° 0 mm 5 mps 750 mmHg 67%
    20:00 +17°C° 0 mm 5 mps 750 mmHg 70%
    21:00 +16°C° 0 mm 5 mps 750 mmHg 73%
    22:00 +15°C° 0 mm 4 mps 749 mmHg 76%
    23:00 +15°C° 0 mm 4 mps 749 mmHg 78%
    Show more